Regional Weather Roundup
Issued by NWS

Home | Current Version | Previous Version | Graphics & Text | Print | Product List | Glossary On
Versions: 1 2 3 4 5 6 7 8 9 10 11 12 13 14 15 16 17 18 19 20 21 22 23 24 25 26 27 28
000
ASUS45 KCYS 301010
RWRWY

WYOMING REGIONAL WEATHER ROUNDUP
NATIONAL WEATHER SERVICE CHEYENNE WY
400 AM MDT SAT APR 30 2016

NOTE:  "FAIR" INDICATES FEW OR NO CLOUDS BELOW 12,000 FEET
WITH NO SIGNIFICANT WEATHER AND/OR OBSTRUCTIONS TO VISIBILITY.

WYZ001-301100-
YELLOWSTONE NATIONAL PARK

CITY           SKY/WX    TMP DP  RH WIND       PRES   REMARKS
LK YELLOWSTONE   N/A     30  27  88 E3        30.00R
W YELLOWSTONE  NOT AVBL

$$
WYZ002>013-054>058-071-098>099-301100-
NORTHERN WYOMING

CITY           SKY/WX    TMP DP  RH WIND       PRES   REMARKS
JACKSON        FAIR      34  34 100 N14       29.94S WCI  24
CODY           CLOUDY    37  34  87 NE7       30.01R WCI  32
GREYBULL       CLOUDY    44  35  70 W5        29.98R
WORLAND        CLOUDY    41  37  86 W3        29.99S
SHERIDAN       CLOUDY    40  36  86 N5        30.05R
BUFFALO          N/A    N/A N/A N/A MISG      30.03R
GILLETTE       CLOUDY    37  34  89 NE7       30.02R WCI  32
HULETT         LGT RAIN  37  36  93 NE6       30.05R WCI  33
NEWCASTLE      CLOUDY    39  30  70 NE8       30.00S WCI  34

$$
WYZ014>020-022>026-101>103-301100-
CENTRAL WYOMING

CITY           SKY/WX    TMP DP  RH WIND       PRES   REMARKS
BIG PINEY      LGT SNOW  32  30  92 S6        29.96R FOG     WCI  26
PINEDALE       FLURRIES  32  32 100 NW3       29.95S
DUBOIS         FLURRIES  28  28 100 S6        29.98R WCI  22
LANDER         MIX PCPN  33  32  96 W6        29.98R WCI  28
RIVERTON       CLOUDY    35  33  92 NW9       29.99S WCI  28
CASPER         LGT SNOW  32  31  96 N6        29.97S FOG     WCI  26
DOUGLAS        LGT SNOW  32  32 100 NW3       29.99R VSB 1

$$
WYZ021-027>030-104>119-301100-
SOUTHERN WYOMING

CITY           SKY/WX    TMP DP  RH WIND       PRES   REMARKS
EVANSTON       CLOUDY    34  28  79 E9        29.92R WCI  27
KEMMERER         N/A     32  28  86 E8        29.95R WCI  25
FORT BRIDGER   FLURRIES  32  32 100 E7        29.97R WCI  26
ROCK SPRINGS   LGT SNOW  32  28  86 NE10      29.94R FOG     WCI  24
DIXON          CLOUDY    34  31  88 NE5       29.89R WCI  30
RAWLINS        CLOUDY    30  27  88 NE8       29.92R FOG     WCI  22
SARATOGA       LGT SNOW  30  30 100 NW5       29.90S WCI  25
LARAMIE        LGT SNOW  26  24  92 NW13      29.86F FOG     WCI  15
CHEYENNE       LGT SNOW  29  26  89 N9        29.87R FOG     WCI  20
TORRINGTON     LGT SNOW  33  32  96 N3        29.93R FOG
PINE BLUFFS    FLURRIES  30  30 100 N10       29.89R WCI  21

$$




USA.gov is the U.S. government's official web portal to all federal, state and local government web resources and services.